Location: Croisilles
(50.1998°N, 2.8793°E)
Time: 13:21:07
(UTC+00:00)

USA 267 - Pass Details

Date: 21 January 2021
Orbit: 1102 x 1106 km, 123.0° (Epoch: 22 February)

Event Time Altitude Azimuth Distance (km) Brightness Sun altitude
Exits shadow 19:07:18 35° 145° (SE) 1,709 4.0 -25.7°
Drops below altitude 10° 19:12:29 10° 197° (SSW) 2,954 5.7 -26.5°
Sets 19:15:12 0° 205° (SSW) 3,909 6.5 -27.0°
